| time (UTC) | temp F | wind direction | speed knots | gust knots | rain 1hr in | rain 24hr in | rain mn in | humidity % | barometer mb |
| 20260508111620 | 60 | 197 | 1.7 | 4.3 | 0.00 | 0.00 | 0.00 | 61 | 1014.3 |
| 20260508110920 | 61 | 197 | 1.7 | 3.5 | 0.00 | 0.00 | 0.00 | 60 | 1014.3 |
| 20260508110220 | 61 | 227 | 1.7 | 6.1 | 0.00 | 0.00 | 0.00 | 59 | 1014.3 |
| 20260508105520 | 61 | 182 | 1.7 | 5.2 | 0.00 | 0.00 | 0.00 | 58 | 1014.3 |
| 20260508104820 | 61 | 92 | 1.7 | 6.1 | 0.00 | 0.00 | 0.00 | 60 | 1014.2 |
| 20260508104120 | 61 | 187 | 1.7 | 5.2 | 0.00 | 0.00 | 0.00 | 59 | 1014.2 |
| 20260508103420 | 61 | 88 | 0.9 | 6.1 | 0.00 | 0.00 | 0.00 | 59 | 1014.3 |
| 20260508102720 | 60 | 171 | 0.9 | 1.7 | 0.00 | 0.00 | 0.00 | 59 | 1014.4 |
| 20260508102020 | 61 | 182 | 0.9 | 4.3 | 0.00 | 0.00 | 0.00 | 58 | 1014.4 |
| 20260508101320 | 60 | 200 | 0.9 | 2.6 | 0.00 | 0.00 | 0.00 | 61 | 1014.4 |
| 20260508100620 | 60 | 61 | 1.7 | 3.5 | 0.00 | 0.00 | 0.00 | 61 | 1014.4 |
| 20260508100244 | 59 | 154 | 1.7 | 4.3 | 0.00 | 0.00 | 0.00 | 59 | 1014.5 |
| 20260508095920 | 59 | 154 | 1.7 | 4.3 | 0.00 | 0.00 | 0.00 | 59 | 1014.5 |
| 20260508095220 | 59 | 157 | 1.7 | 6.1 | 0.00 | 0.00 | 0.00 | 61 | 1014.5 |
| 20260508094520 | 59 | 91 | 0.9 | 2.6 | 0.00 | 0.00 | 0.00 | 66 | 1014.5 |
| 20260508093820 | 58 | 171 | 0.9 | 2.6 | 0.00 | 0.00 | 0.00 | 65 | 1014.6 |
| 20260508093120 | 57 | 188 | 0.9 | 1.7 | 0.00 | 0.00 | 0.00 | 69 | 1014.5 |
| 20260508092420 | 57 | 188 | 0.9 | 3.5 | 0.00 | 0.00 | 0.00 | 72 | 1014.6 |
| 20260508091720 | 56 | 188 | 0.9 | 3.5 | 0.00 | 0.00 | 0.00 | 72 | 1014.6 |
| 20260508091020 | 55 | 165 | 0.9 | 3.5 | 0.00 | 0.00 | 0.00 | 76 | 1014.5 |
| 20260508090320 | 55 | 175 | 0.9 | 1.7 | 0.00 | 0.00 | 0.00 | 76 | 1014.5 |
| 20260508085620 | 54 | 134 | 0.9 | 0.0 | 0.00 | 0.00 | 0.00 | 79 | 1014.4 |
| 20260508085006 | 53 | 207 | 0.0 | 0.9 | 0.00 | 0.00 | 0.00 | 80 | 1014.4 |
| 20260508084920 | 53 | 207 | 0.0 | 0.9 | 0.00 | 0.00 | 0.00 | 80 | 1014.4 |
| 20260508084318 | 53 | 207 | 0.0 | 0.9 | 0.00 | 0.00 | 0.00 | 81 | 1014.4 |
| 20260508084220 | 53 | 207 | 0.0 | 0.9 | 0.00 | 0.00 | 0.00 | 81 | 1014.4 |
| 20260508083520 | 53 | 171 | 0.0 | 0.0 | 0.00 | 0.00 | 0.00 | 81 | 1014.4 |
| 20260508082820 | 53 | 171 | 0.0 | 2.6 | 0.00 | 0.00 | 0.00 | 81 | 1014.3 |
| 20260508082120 | 53 | 190 | 0.0 | 0.9 | 0.00 | 0.00 | 0.00 | 81 | 1014.3 |
| 20260508081420 | 53 | 178 | 0.0 | 0.9 | 0.00 | 0.00 | 0.00 | 81 | 1014.4 |
| 20260508080720 | 53 | 178 | 0.0 | 1.7 | 0.00 | 0.00 | 0.00 | 82 | 1014.4 |
| 20260508080020 | 52 | 178 | 0.0 | 0.9 | 0.00 | 0.00 | 0.00 | 84 | 1014.4 |
| 20260508075320 | 52 | 178 | 0.0 | 0.9 | 0.00 | 0.00 | 0.00 | 85 | 1014.3 |
| 20260508074620 | 52 | 196 | 0.9 | 2.6 | 0.00 | 0.00 | 0.00 | 86 | 1014.4 |
| 20260508073920 | 51 | 194 | 0.9 | 2.6 | 0.00 | 0.00 | 0.00 | 87 | 1014.4 |
| 20260508073220 | 51 | 200 | 0.0 | 1.7 | 0.00 | 0.00 | 0.00 | 89 | 1014.3 |
| 20260508072520 | 50 | 204 | 0.0 | 0.0 | 0.00 | 0.00 | 0.00 | 90 | 1014.3 |
| 20260508071820 | 50 | 204 | 0.0 | 0.0 | 0.00 | 0.00 | 0.00 | 90 | 1014.2 |
| 20260508071121 | 49 | 204 | 0.0 | 0.0 | 0.00 | 0.00 | 0.00 | 91 | 1014.2 |
| 20260508070421 | 49 | 204 | 0.0 | 0.0 | 0.00 | 0.00 | 0.00 | 91 | 1014.2 |
| 20260508065721 | 49 | 204 | 0.0 | 0.0 | 0.00 | 0.00 | 0.00 | 92 | 1014.1 |
| 20260508065021 | 48 | 204 | 0.0 | 0.0 | 0.00 | 0.00 | 0.00 | 92 | 1014.0 |
| 20260508064321 | 48 | 204 | 0.0 | 0.0 | 0.00 | 0.00 | 0.00 | 92 | 1014.1 |
| 20260508063621 | 47 | 204 | 0.0 | 0.0 | 0.00 | 0.00 | 0.00 | 92 | 1014.0 |
| 20260508062921 | 47 | 204 | 0.0 | 0.0 | 0.00 | 0.00 | 0.00 | 92 | 1014.0 |
| 20260508062221 | 47 | 204 | 0.0 | 0.0 | 0.00 | 0.00 | 0.00 | 92 | 1013.9 |
| 20260508061521 | 47 | 204 | 0.0 | 0.0 | 0.00 | 0.00 | 0.00 | 92 | 1013.8 |
| 20260508060821 | 47 | 204 | 0.0 | 0.0 | 0.00 | 0.00 | 0.00 | 92 | 1013.8 |
| 20260508060121 | 47 | 204 | 0.0 | 0.0 | 0.00 | 0.00 | 0.00 | 92 | 1013.8 |
| 20260508055421 | 46 | 204 | 0.0 | 0.0 | 0.00 | 0.00 | 0.00 | 92 | 1013.8 |
| 20260508054721 | 46 | 204 | 0.0 | 0.0 | 0.00 | 0.00 | 0.00 | 93 | 1013.8 |
| 20260508054021 | 46 | 204 | 0.0 | 0.0 | 0.00 | 0.00 | 0.00 | 93 | 1013.7 |
| 20260508053321 | 46 | 204 | 0.0 | 0.0 | 0.00 | 0.00 | 0.00 | 92 | 1013.6 |
| 20260508052621 | 46 | 204 | 0.0 | 0.0 | 0.00 | 0.00 | 0.00 | 92 | 1013.6 |
| 20260508051921 | 46 | 204 | 0.0 | 0.0 | 0.00 | 0.00 | 0.00 | 92 | 1013.5 |
| 20260508051221 | 46 | 204 | 0.0 | 0.0 | 0.00 | 0.00 | 0.00 | 92 | 1013.6 |
| 20260508050521 | 46 | 204 | 0.0 | 0.0 | 0.00 | 0.00 | 0.00 | 92 | 1013.5 |
| 20260508045821 | 46 | 204 | 0.0 | 0.0 | 0.00 | 0.00 | 0.00 | 92 | 1013.4 |
| 20260508045121 | 46 | 204 | 0.0 | 0.0 | 0.00 | 0.00 | 0.00 | 92 | 1013.5 |
| 20260508044421 | 46 | 204 | 0.0 | 0.0 | 0.00 | 0.00 | 0.00 | 92 | 1013.4 |
| 20260508043721 | 46 | 204 | 0.0 | 0.0 | 0.00 | 0.00 | 0.00 | 92 | 1013.3 |
| 20260508043021 | 46 | 204 | 0.0 | 0.0 | 0.00 | 0.00 | 0.00 | 92 | 1013.3 |
| 20260508042321 | 46 | 204 | 0.0 | 0.0 | 0.00 | 0.00 | 0.00 | 92 | 1013.4 |
| 20260508041621 | 46 | 204 | 0.0 | 0.0 | 0.00 | 0.00 | 0.00 | 92 | 1013.4 |
| 20260508040921 | 46 | 204 | 0.0 | 0.0 | 0.00 | 0.00 | 0.00 | 92 | 1013.4 |
| 20260508040221 | 46 | 204 | 0.0 | 0.0 | 0.00 | 0.00 | 0.00 | 92 | 1013.4 |
| 20260508035521 | 46 | 204 | 0.0 | 0.0 | 0.00 | 0.00 | 0.00 | 92 | 1013.4 |
| 20260508034821 | 46 | 204 | 0.0 | 0.0 | 0.00 | 0.00 | 0.00 | 92 | 1013.4 |
| 20260508034121 | 46 | 204 | 0.0 | 0.0 | 0.00 | 0.00 | 0.00 | 92 | 1013.3 |
| 20260508033421 | 46 | 204 | 0.0 | 0.0 | 0.00 | 0.00 | 0.00 | 92 | 1013.3 |
| 20260508032721 | 46 | 204 | 0.0 | 0.0 | 0.00 | 0.00 | 0.00 | 92 | 1013.3 |
| 20260508032021 | 46 | 204 | 0.0 | 0.0 | 0.00 | 0.00 | 0.00 | 92 | 1013.3 |
| 20260508031321 | 46 | 204 | 0.0 | 0.0 | 0.00 | 0.00 | 0.00 | 92 | 1013.3 |
| 20260508030621 | 46 | 204 | 0.0 | 0.0 | 0.00 | 0.00 | 0.00 | 92 | 1013.3 |
| 20260508025921 | 46 | 204 | 0.0 | 0.0 | 0.00 | 0.00 | 0.00 | 92 | 1013.3 |
| 20260508025221 | 46 | 204 | 0.0 | 0.0 | 0.00 | 0.00 | 0.00 | 92 | 1013.2 |
| 20260508024521 | 46 | 204 | 0.0 | 0.0 | 0.00 | 0.00 | 0.00 | 92 | 1013.3 |
| 20260508023821 | 46 | 204 | 0.0 | 0.0 | 0.00 | 0.00 | 0.00 | 92 | 1013.3 |
| 20260508023122 | 46 | 204 | 0.0 | 0.0 | 0.00 | 0.00 | 0.00 | 92 | 1013.3 |
| 20260508022422 | 46 | 204 | 0.0 | 0.0 | 0.00 | 0.00 | 0.00 | 92 | 1013.3 |
| 20260508021722 | 46 | 204 | 0.0 | 0.0 | 0.00 | 0.00 | 0.00 | 92 | 1013.2 |
| 20260508021022 | 46 | 204 | 0.0 | 0.0 | 0.00 | 0.00 | 0.00 | 92 | 1013.2 |
| 20260508020322 | 46 | 204 | 0.0 | 0.0 | 0.00 | 0.00 | 0.00 | 92 | 1013.2 |
| 20260508015622 | 45 | 204 | 0.0 | 0.0 | 0.00 | 0.00 | 0.00 | 91 | 1013.2 |
| 20260508014922 | 45 | 204 | 0.0 | 0.0 | 0.00 | 0.00 | 0.00 | 91 | 1013.2 |
| 20260508014222 | 45 | 204 | 0.0 | 0.0 | 0.00 | 0.00 | 0.00 | 91 | 1013.3 |
| 20260508013522 | 45 | 204 | 0.0 | 0.0 | 0.00 | 0.00 | 0.00 | 91 | 1013.2 |
| 20260508012822 | 45 | 204 | 0.0 | 0.0 | 0.00 | 0.00 | 0.00 | 91 | 1013.3 |
| 20260508012122 | 45 | 204 | 0.0 | 0.0 | 0.00 | 0.00 | 0.00 | 91 | 1013.3 |
| 20260508011422 | 45 | 204 | 0.0 | 0.0 | 0.00 | 0.00 | 0.00 | 90 | 1013.3 |
| 20260508010722 | 45 | 204 | 0.0 | 0.0 | 0.00 | 0.00 | 0.00 | 90 | 1013.3 |
| 20260508010022 | 45 | 204 | 0.0 | 0.0 | 0.00 | 0.00 | 0.00 | 90 | 1013.3 |
| 20260508005322 | 45 | 204 | 0.0 | 0.0 | 0.00 | 0.00 | 0.00 | 90 | 1013.3 |
| 20260508004622 | 45 | 204 | 0.0 | 0.0 | 0.00 | 0.00 | 0.00 | 89 | 1013.3 |
| 20260508003922 | 45 | 204 | 0.0 | 0.0 | 0.00 | 0.00 | 0.00 | 89 | 1013.3 |
| 20260508003222 | 46 | 204 | 0.0 | 0.0 | 0.00 | 0.00 | 0.00 | 88 | 1013.3 |
| 20260508002522 | 46 | 204 | 0.0 | 0.0 | 0.00 | 0.00 | 0.00 | 88 | 1013.4 |
| 20260508001822 | 46 | 204 | 0.0 | 0.0 | 0.00 | 0.00 | 0.00 | 88 | 1013.5 |
| 20260508001122 | 46 | 204 | 0.0 | 0.0 | 0.00 | 0.00 | 0.00 | 88 | 1013.5 |
| 20260508000422 | 46 | 204 | 0.0 | 0.0 | 0.00 | 0.00 | 0.00 | 87 | 1013.4 |
| 20260507235722 | 47 | 204 | 0.0 | 0.0 | 0.00 | 0.00 | 0.00 | 88 | 1013.5 |
| 20260507235022 | 47 | 204 | 0.0 | 0.0 | 0.00 | 0.00 | 0.00 | 88 | 1013.4 |
| 20260507234322 | 47 | 204 | 0.0 | 0.0 | 0.00 | 0.00 | 0.00 | 87 | 1013.4 |
| 20260507233622 | 47 | 204 | 0.0 | 0.0 | 0.00 | 0.00 | 0.00 | 87 | 1013.3 |
| 20260507232922 | 48 | 204 | 0.0 | 0.0 | 0.00 | 0.00 | 0.00 | 86 | 1013.3 |
| 20260507232222 | 48 | 204 | 0.0 | 0.0 | 0.00 | 0.00 | 0.00 | 87 | 1013.3 |
| 20260507231522 | 48 | 204 | 0.0 | 0.0 | 0.00 | 0.00 | 0.00 | 86 | 1013.4 |
| 20260507230822 | 48 | 204 | 0.0 | 0.0 | 0.00 | 0.00 | 0.00 | 86 | 1013.4 |
| 20260507230122 | 48 | 204 | 0.0 | 0.0 | 0.00 | 0.00 | 0.00 | 86 | 1013.4 |
| 20260507225422 | 49 | 204 | 0.0 | 0.0 | 0.00 | 0.00 | 0.00 | 85 | 1013.4 |
| 20260507224722 | 49 | 204 | 0.0 | 0.0 | 0.00 | 0.00 | 0.00 | 86 | 1013.4 |
| 20260507224022 | 49 | 204 | 0.0 | 0.0 | 0.00 | 0.00 | 0.00 | 85 | 1013.4 |
| 20260507223322 | 49 | 204 | 0.0 | 0.0 | 0.00 | 0.00 | 0.00 | 85 | 1013.4 |
| 20260507222622 | 49 | 204 | 0.0 | 0.0 | 0.00 | 0.00 | 0.00 | 85 | 1013.4 |
| 20260507221922 | 50 | 204 | 0.0 | 0.0 | 0.00 | 0.00 | 0.00 | 84 | 1013.3 |
| 20260507221222 | 50 | 204 | 0.0 | 0.0 | 0.00 | 0.00 | 0.00 | 83 | 1013.3 |
| 20260507220522 | 50 | 204 | 0.0 | 0.0 | 0.00 | 0.00 | 0.00 | 83 | 1013.2 |
| 20260507215822 | 50 | 204 | 0.0 | 0.0 | 0.00 | 0.00 | 0.00 | 83 | 1013.3 |
| 20260507215122 | 50 | 204 | 0.0 | 0.0 | 0.00 | 0.00 | 0.00 | 82 | 1013.3 |
| 20260507214423 | 50 | 204 | 0.0 | 0.0 | 0.00 | 0.00 | 0.00 | 82 | 1013.3 |
| 20260507213723 | 51 | 204 | 0.0 | 0.0 | 0.00 | 0.00 | 0.00 | 81 | 1013.3 |
| 20260507213023 | 51 | 204 | 0.0 | 0.0 | 0.00 | 0.00 | 0.00 | 81 | 1013.3 |
| 20260507212323 | 51 | 204 | 0.0 | 0.0 | 0.00 | 0.00 | 0.00 | 80 | 1013.2 |
| 20260507211623 | 51 | 204 | 0.0 | 0.0 | 0.00 | 0.00 | 0.00 | 80 | 1013.2 |
| 20260507210923 | 51 | 204 | 0.0 | 0.0 | 0.00 | 0.00 | 0.00 | 80 | 1013.1 |
| 20260507210223 | 51 | 204 | 0.0 | 0.0 | 0.00 | 0.00 | 0.00 | 79 | 1013.1 |
| 20260507205523 | 51 | 204 | 0.0 | 0.0 | 0.00 | 0.00 | 0.00 | 79 | 1013.0 |
| 20260507204823 | 52 | 204 | 0.0 | 2.6 | 0.00 | 0.00 | 0.00 | 79 | 1013.0 |
| 20260507204123 | 52 | 194 | 0.0 | 1.7 | 0.00 | 0.00 | 0.00 | 79 | 1012.9 |
| 20260507203423 | 52 | 194 | 0.0 | 1.7 | 0.00 | 0.00 | 0.00 | 79 | 1012.9 |
| 20260507202723 | 52 | 198 | 0.0 | 0.0 | 0.00 | 0.00 | 0.00 | 79 | 1012.8 |
| 20260507202023 | 52 | 198 | 0.0 | 0.9 | 0.00 | 0.00 | 0.00 | 78 | 1012.8 |
| 20260507201323 | 53 | 200 | 0.0 | 0.0 | 0.00 | 0.00 | 0.00 | 79 | 1012.7 |
| 20260507200623 | 53 | 200 | 0.0 | 0.0 | 0.00 | 0.00 | 0.00 | 78 | 1012.6 |
| 20260507195923 | 53 | 200 | 0.0 | 0.0 | 0.00 | 0.00 | 0.00 | 78 | 1012.6 |
| 20260507195223 | 53 | 200 | 0.0 | 0.0 | 0.00 | 0.00 | 0.00 | 77 | 1012.5 |
| 20260507194523 | 53 | 200 | 0.0 | 0.0 | 0.00 | 0.00 | 0.00 | 77 | 1012.5 |
| 20260507193823 | 53 | 200 | 0.0 | 1.7 | 0.00 | 0.00 | 0.00 | 77 | 1012.5 |
| 20260507193123 | 53 | 188 | 0.0 | 3.5 | 0.00 | 0.00 | 0.00 | 77 | 1012.4 |
| 20260507192423 | 54 | 193 | 0.9 | 2.6 | 0.00 | 0.00 | 0.00 | 77 | 1012.4 |
| 20260507191723 | 54 | 201 | 0.9 | 2.6 | 0.00 | 0.00 | 0.00 | 77 | 1012.3 |
| 20260507191023 | 54 | 183 | 0.9 | 2.6 | 0.00 | 0.00 | 0.00 | 76 | 1012.2 |
| 20260507190323 | 54 | 180 | 0.0 | 5.2 | 0.00 | 0.00 | 0.00 | 76 | 1012.2 |
| 20260507185623 | 54 | 180 | 0.0 | 1.7 | 0.00 | 0.00 | 0.00 | 76 | 1012.2 |
| 20260507184923 | 54 | 183 | 0.9 | 5.2 | 0.00 | 0.00 | 0.00 | 75 | 1012.2 |
| 20260507184223 | 54 | 184 | 1.7 | 5.2 | 0.00 | 0.00 | 0.00 | 75 | 1012.2 |
| 20260507183523 | 54 | 221 | 1.7 | 7.8 | 0.00 | 0.00 | 0.00 | 74 | 1012.1 |
| 20260507182823 | 54 | 171 | 1.7 | 6.1 | 0.00 | 0.00 | 0.00 | 75 | 1012.1 |
| 20260507182123 | 54 | 205 | 0.9 | 5.2 | 0.00 | 0.00 | 0.00 | 74 | 1012.0 |
| 20260507181423 | 54 | 207 | 0.9 | 6.1 | 0.00 | 0.00 | 0.00 | 74 | 1012.1 |
| 20260507180723 | 54 | 178 | 0.9 | 2.6 | 0.00 | 0.00 | 0.00 | 75 | 1012.1 |
| 20260507180023 | 54 | 207 | 0.9 | 3.5 | 0.00 | 0.00 | 0.00 | 75 | 1012.1 |
| 20260507175323 | 54 | 217 | 0.9 | 4.3 | 0.00 | 0.00 | 0.00 | 75 | 1012.0 |
| 20260507174824 | 54 | 231 | 0.9 | 4.3 | 0.00 | 0.00 | 0.00 | 75 | 1012.0 |
| 20260507174623 | 54 | 231 | 0.9 | 4.3 | 0.00 | 0.00 | 0.00 | 75 | 1012.0 |
| 20260507173923 | 53 | 171 | 0.9 | 4.3 | 0.00 | 0.00 | 0.00 | 74 | 1012.1 |
| 20260507173223 | 53 | 190 | 1.7 | 4.3 | 0.00 | 0.00 | 0.00 | 74 | 1012.2 |
| 20260507172523 | 53 | 180 | 1.7 | 7.8 | 0.00 | 0.00 | 0.00 | 73 | 1012.1 |
| 20260507171823 | 53 | 185 | 0.9 | 7.0 | 0.00 | 0.00 | 0.00 | 74 | 1012.1 |
| 20260507171123 | 53 | 161 | 0.9 | 4.3 | 0.00 | 0.00 | 0.00 | 74 | 1012.1 |
| 20260507170423 | 53 | 185 | 0.9 | 3.5 | 0.00 | 0.00 | 0.00 | 74 | 1012.1 |
| 20260507165724 | 53 | 180 | 0.9 | 5.2 | 0.00 | 0.00 | 0.00 | 76 | 1012.1 |
| 20260507165024 | 53 | 174 | 1.7 | 7.8 | 0.00 | 0.00 | 0.00 | 77 | 1012.2 |
| 20260507164324 | 54 | 192 | 0.9 | 4.3 | 0.00 | 0.00 | 0.00 | 76 | 1012.1 |
| 20260507163624 | 54 | 188 | 1.7 | 4.3 | 0.00 | 0.00 | 0.00 | 76 | 1012.2 |
| 20260507163021 | 55 | 215 | 1.7 | 7.8 | 0.00 | 0.00 | 0.00 | 75 | 1012.2 |
| 20260507162924 | 55 | 215 | 1.7 | 7.8 | 0.00 | 0.00 | 0.00 | 75 | 1012.2 |
| 20260507162224 | 55 | 209 | 1.7 | 10.4 | 0.00 | 0.00 | 0.00 | 74 | 1012.2 |
| 20260507161524 | 56 | 184 | 3.5 | 8.7 | 0.00 | 0.00 | 0.00 | 70 | 1012.1 |
| 20260507161148 | 56 | 185 | 3.5 | 6.1 | 0.00 | 0.00 | 0.00 | 68 | 1012.1 |
| 20260507160824 | 56 | 185 | 3.5 | 6.1 | 0.00 | 0.00 | 0.00 | 68 | 1012.1 |
| 20260507160310 | 57 | 181 | 2.6 | 6.1 | 0.00 | 0.00 | 0.00 | 63 | 1012.0 |
| 20260507160124 | 57 | 181 | 2.6 | 6.1 | 0.00 | 0.00 | 0.00 | 63 | 1012.0 |
| 20260507155424 | 58 | 196 | 1.7 | 9.6 | 0.00 | 0.00 | 0.00 | 63 | 1012.0 |
| 20260507154724 | 58 | 211 | 1.7 | 7.0 | 0.00 | 0.00 | 0.00 | 61 | 1012.0 |
| 20260507154024 | 58 | 217 | 1.7 | 2.6 | 0.00 | 0.00 | 0.00 | 60 | 1011.9 |
| 20260507153958 | 59 | 202 | 1.7 | 4.3 | 0.00 | 0.00 | 0.00 | 60 | 1012.0 |
| 20260507153324 | 59 | 202 | 1.7 | 4.3 | 0.00 | 0.00 | 0.00 | 60 | 1012.0 |
| 20260507152624 | 59 | 217 | 0.9 | 5.2 | 0.00 | 0.00 | 0.00 | 59 | 1012.0 |
| 20260507152026 | 59 | 174 | 0.9 | 7.8 | 0.00 | 0.00 | 0.00 | 59 | 1012.1 |
| 20260507151924 | 59 | 174 | 0.9 | 7.8 | 0.00 | 0.00 | 0.00 | 59 | 1012.1 |
| 20260507151224 | 58 | 192 | 0.9 | 5.2 | 0.00 | 0.00 | 0.00 | 60 | 1012.0 |
| 20260507150524 | 58 | 211 | 0.9 | 2.6 | 0.00 | 0.00 | 0.00 | 60 | 1012.0 |
| 20260507145824 | 58 | 194 | 0.9 | 0.9 | 0.00 | 0.00 | 0.00 | 60 | 1012.1 |
| 20260507145124 | 58 | 187 | 0.9 | 3.5 | 0.00 | 0.00 | 0.00 | 59 | 1012.1 |
| 20260507144424 | 58 | 196 | 0.9 | 6.1 | 0.00 | 0.00 | 0.00 | 59 | 1012.2 |
| 20260507143724 | 59 | 138 | 0.9 | 3.5 | 0.00 | 0.00 | 0.00 | 58 | 1012.2 |
| 20260507143025 | 59 | 178 | 0.9 | 4.3 | 0.00 | 0.00 | 0.00 | 58 | 1012.3 |
| 20260507142324 | 59 | 203 | 0.9 | 5.2 | 0.00 | 0.00 | 0.00 | 59 | 1012.3 |
| 20260507141624 | 59 | 211 | 0.9 | 5.2 | 0.00 | 0.00 | 0.00 | 59 | 1012.4 |
| 20260507140924 | 59 | 232 | 0.9 | 3.5 | 0.00 | 0.00 | 0.00 | 59 | 1012.4 |
| 20260507140224 | 59 | 184 | 1.7 | 6.1 | 0.00 | 0.00 | 0.00 | 59 | 1012.6 |
| 20260507135524 | 59 | 176 | 1.7 | 3.5 | 0.00 | 0.00 | 0.00 | 59 | 1012.6 |
| 20260507134824 | 59 | 192 | 1.7 | 3.5 | 0.00 | 0.00 | 0.00 | 60 | 1012.6 |
| 20260507134124 | 59 | 188 | 2.6 | 6.1 | 0.00 | 0.00 | 0.00 | 58 | 1012.6 |
| 20260507133424 | 59 | 185 | 2.6 | 7.0 | 0.00 | 0.00 | 0.00 | 58 | 1012.7 |
| 20260507132724 | 59 | 157 | 2.6 | 7.0 | 0.00 | 0.00 | 0.00 | 56 | 1012.7 |
| 20260507132024 | 59 | 192 | 2.6 | 8.7 | 0.00 | 0.00 | 0.00 | 55 | 1012.8 |
| 20260507131324 | 60 | 236 | 2.6 | 3.5 | 0.00 | 0.00 | 0.00 | 54 | 1012.7 |
| 20260507130624 | 60 | 184 | 3.5 | 9.6 | 0.00 | 0.00 | 0.00 | 53 | 1012.7 |
| 20260507125924 | 61 | 242 | 2.6 | 7.8 | 0.00 | 0.00 | 0.00 | 53 | 1012.7 |
| 20260507125224 | 60 | 176 | 2.6 | 6.1 | 0.00 | 0.00 | 0.00 | 55 | 1012.6 |
| 20260507124524 | 60 | 178 | 1.7 | 7.8 | 0.00 | 0.00 | 0.00 | 53 | 1012.7 |
| 20260507123824 | 61 | 167 | 2.6 | 5.2 | 0.00 | 0.00 | 0.00 | 53 | 1012.7 |
| 20260507123124 | 61 | 168 | 3.5 | 11.3 | 0.00 | 0.00 | 0.00 | 53 | 1012.8 |
| 20260507122424 | 60 | 181 | 1.7 | 6.1 | 0.00 | 0.00 | 0.00 | 54 | 1012.8 |
| 20260507121725 | 60 | 230 | 1.7 | 7.0 | 0.00 | 0.00 | 0.00 | 54 | 1012.9 |
| 20260507121720 | 60 | 190 | 2.6 | 7.0 | 0.00 | 0.00 | 0.00 | 54 | 1013.0 |
| 20260507121024 | 60 | 190 | 2.6 | 7.0 | 0.00 | 0.00 | 0.00 | 54 | 1013.0 |
| 20260507120325 | 59 | 183 | 2.6 | 10.4 | 0.00 | 0.00 | 0.00 | 54 | 1013.1 |
| 20260507115625 | 59 | 136 | 3.5 | 10.4 | 0.00 | 0.00 | 0.00 | 53 | 1013.1 |
| 20260507114925 | 58 | 178 | 3.5 | 9.6 | 0.00 | 0.00 | 0.00 | 56 | 1013.1 |
| 20260507114225 | 58 | 161 | 2.6 | 8.7 | 0.00 | 0.00 | 0.00 | 56 | 1013.1 |
| 20260507113525 | 58 | 198 | 2.6 | 9.6 | 0.00 | 0.00 | 0.00 | 57 | 1013.2 |
| 20260507112825 | 57 | 227 | 0.0 | 7.0 | 0.00 | 0.00 | 0.00 | 61 | 1013.3 |
| 20260507112522 | 57 | 132 | 0.9 | 0.0 | 0.00 | 0.00 | 0.00 | 64 | 1013.3 |
| 20260507112125 | 57 | 132 | 0.9 | 0.0 | 0.00 | 0.00 | 0.00 | 64 | 1013.3 |